TimeCST,TemperatureF,Dew PointF,Humidity,Sea Level PressureIn,VisibilityMPH,Wind Direction,Wind SpeedMPH,Gust SpeedMPH,PrecipitationIn,Events,Conditions,WindDirDegrees,DateUTC
12:53 AM,24.1,19.9,84,30.22,10.0,SSW,11.5,-,N/A,,Overcast,210,2013-03-08 06:53:00
1:53 AM,24.1,21.0,88,30.22,9.0,SSW,8.1,-,N/A,,Overcast,200,2013-03-08 07:53:00
3:53 AM,24.1,21.0,88,30.20,8.0,SSW,10.4,-,N/A,,Overcast,200,2013-03-08 09:53:00
4:53 AM,24.1,21.0,88,30.21,8.0,SSW,9.2,-,N/A,,Overcast,200,2013-03-08 10:53:00
5:53 AM,24.1,21.0,88,30.21,8.0,South,9.2,-,N/A,,Overcast,190,2013-03-08 11:53:00
6:53 AM,21.0,19.0,92,30.22,7.0,SSW,5.8,-,N/A,,Scattered Clouds,210,2013-03-08 12:53:00
7:53 AM,21.0,17.1,85,30.23,5.0,WSW,6.9,-,N/A,,Scattered Clouds,250,2013-03-08 13:53:00
8:10 AM,19.4,17.6,93,30.18,6.0,SW,5.8,-,N/A,,Mostly Cloudy,220,2013-03-08 14:10:00
8:53 AM,23.0,19.9,88,30.23,5.0,SSW,6.9,-,N/A,,Overcast,210,2013-03-08 14:53:00
9:53 AM,26.1,21.9,84,30.22,7.0,SSW,9.2,-,N/A,,Overcast,210,2013-03-08 15:53:00
10:53 AM,28.0,23.0,81,30.22,9.0,SSW,8.1,-,N/A,,Overcast,200,2013-03-08 16:53:00
11:53 AM,32.0,23.0,69,30.22,10.0,West,5.8,-,N/A,,Overcast,280,2013-03-08 17:53:00
12:53 PM,30.9,21.9,69,30.22,10.0,WNW,6.9,-,N/A,,Overcast,290,2013-03-08 18:53:00
1:53 PM,30.9,23.0,72,30.22,10.0,West,6.9,-,N/A,,Overcast,280,2013-03-08 19:53:00
2:53 PM,30.9,23.0,72,30.21,10.0,West,8.1,-,N/A,,Overcast,260,2013-03-08 20:53:00
3:53 PM,30.9,23.0,72,30.21,10.0,West,6.9,-,N/A,,Overcast,260,2013-03-08 21:53:00
4:32 PM,30.2,23.0,75,30.15,10.0,NW,4.6,-,N/A,,Mostly Cloudy,310,2013-03-08 22:32:00
4:53 PM,28.9,23.0,78,30.20,10.0,North,4.6,-,N/A,,Mostly Cloudy,350,2013-03-08 22:53:00
5:53 PM,28.0,21.9,78,30.18,10.0,NNE,8.1,-,N/A,,Overcast,20,2013-03-08 23:53:00
6:53 PM,26.1,19.9,78,30.18,10.0,North,9.2,-,N/A,,Overcast,10,2013-03-09 00:53:00
7:53 PM,26.1,19.9,78,30.16,10.0,NE,5.8,-,N/A,,Overcast,50,2013-03-09 01:53:00
8:53 PM,26.1,19.0,75,30.15,10.0,NE,4.6,-,N/A,,Overcast,40,2013-03-09 02:53:00
9:53 PM,25.0,19.0,78,30.14,10.0,NNE,4.6,-,N/A,,Overcast,20,2013-03-09 03:53:00
10:53 PM,24.1,19.9,84,30.12,9.0,North,10.4,-,N/A,,Overcast,10,2013-03-09 04:53:00
11:53 PM,24.1,17.1,75,30.11,10.0,North,8.1,-,N/A,,Overcast,10,2013-03-09 05:53:00